LRTR Weather Reports


time (UTC)temp
C
wind
direction
speed
KPH
gust
KPH
rain 1hr
cm
rain 24hr
cm
rain mn
cm
humidity
%
barometer
mb
20260906021812 15 250 9.7 0.0 0.00 0.00 0.00 88 1022.0
20260906020306 15 250 9.7 0.0 0.00 0.00 0.00 88 1022.0
20260906014806 12 3.2 0.0 0.00 0.00 0.00 94 1022.0
20260906013419 12 3.2 0.0 0.00 0.00 0.00 94 1022.0
20260906011805 15 260 4.8 0.0 0.00 0.00 0.00 88 1022.0
20260906010305 15 260 4.8 0.0 0.00 0.00 0.00 88 1022.0
20260906004919 16 240 4.8 0.0 0.00 0.00 0.00 88 1022.0
20260906003420 15 250 4.8 0.0 0.00 0.00 0.00 88 1022.0
20260906001919 15 250 4.8 0.0 0.00 0.00 0.00 88 1022.0
20260906000410 15 250 4.8 0.0 0.00 0.00 0.00 88 1021.0
20260905234815 15 250 4.8 0.0 0.00 0.00 0.00 88 1021.0
20260905233305 15 250 4.8 0.0 0.00 0.00 0.00 88 1021.0
20260905231919 15 310 8.0 0.0 0.00 0.00 0.00 88 1021.0
20260905230337 15 310 8.0 0.0 0.00 0.00 0.00 88 1021.0
20260905224919 16 300 8.0 0.0 0.00 0.00 0.00 88 1021.0
20260905223319 16 300 8.0 0.0 0.00 0.00 0.00 88 1021.0
20260905221904 17 330 3.2 0.0 0.00 0.00 0.00 83 1021.0
20260905220419 17 3.2 0.0 0.00 0.00 0.00 73 1021.0
20260905214918 17 3.2 0.0 0.00 0.00 0.00 73 1021.0
20260905213305 17 3.2 0.0 0.00 0.00 0.00 73 1021.0
20260905211805 18 360 9.7 0.0 0.00 0.00 0.00 68 1020.0
20260905210305 18 360 9.7 0.0 0.00 0.00 0.00 68 1020.0
20260905204815 20 330 12.9 0.0 0.00 0.00 0.00 64 1020.0
20260905203305 20 330 12.9 0.0 0.00 0.00 0.00 64 1020.0
20260905201805 18 20 9.7 0.0 0.00 0.00 0.00 73 1019.0
20260905200419 22 340 20.9 0.0 0.00 0.00 0.00 38 1020.0
20260905194910 22 340 20.9 0.0 0.00 0.00 0.00 38 1020.0
20260905193305 22 340 20.9 0.0 0.00 0.00 0.00 38 1020.0
20260905191834 22 340 17.7 0.0 0.00 0.00 0.00 36 1019.0
20260905190305 22 340 17.7 0.0 0.00 0.00 0.00 36 1019.0
20260905184806 22 330 20.9 0.0 0.00 0.00 0.00 33 1019.0
20260905183310 22 330 20.9 0.0 0.00 0.00 0.00 33 1019.0
20260905181805 23 350 22.5 0.0 0.00 0.00 0.00 31 1018.0
20260905180305 23 350 22.5 0.0 0.00 0.00 0.00 31 1018.0
20260905174805 25 340 24.1 0.0 0.00 0.00 0.00 36 1018.0
20260905173305 25 340 24.1 0.0 0.00 0.00 0.00 36 1018.0
20260905171815 27 320 27.4 0.0 0.00 0.00 0.00 32 1017.0
20260905170305 27 320 27.4 0.0 0.00 0.00 0.00 32 1017.0
20260905164805 27 340 25.7 0.0 0.00 0.00 0.00 30 1017.0
20260905163306 27 340 25.7 0.0 0.00 0.00 0.00 30 1017.0
20260905161806 28 340 29.0 0.0 0.00 0.00 0.00 29 1017.0
20260905160305 28 340 29.0 0.0 0.00 0.00 0.00 29 1017.0
20260905154821 30 350 33.8 0.0 0.00 0.00 0.00 27 1016.0
20260905153305 30 350 33.8 0.0 0.00 0.00 0.00 27 1016.0
20260905151805 31 360 37.0 0.0 0.00 0.00 0.00 27 1016.0
20260905150306 31 360 37.0 0.0 0.00 0.00 0.00 27 1016.0
20260905144805 31 350 38.6 0.0 0.00 0.00 0.00 29 1015.0
20260905143305 31 350 38.6 0.0 0.00 0.00 0.00 29 1015.0
20260905141805 31 350 40.2 0.0 0.00 0.00 0.00 33 1015.0
20260905140305 31 350 40.2 0.0 0.00 0.00 0.00 33 1015.0
20260905134916 32 340 38.6 0.0 0.00 0.00 0.00 31 1015.0
20260905133305 32 340 38.6 0.0 0.00 0.00 0.00 31 1015.0
20260905130326 32 290 17.7 0.0 0.00 0.00 0.00 30 1014.0
20260905124806 33 17.7 0.0 0.00 0.00 0.00 26 1014.0
20260905123306 33 17.7 0.0 0.00 0.00 0.00 26 1014.0
20260905121832 35 260 17.7 0.0 0.00 0.00 0.00 25 1015.0
20260905120306 35 260 17.7 0.0 0.00 0.00 0.00 25 1015.0
20260905114805 35 270 14.5 0.0 0.00 0.00 0.00 23 1015.0
20260905113305 35 270 14.5 0.0 0.00 0.00 0.00 23 1015.0
20260905111823 33 240 20.9 0.0 0.00 0.00 0.00 26 1015.0
20260905110305 33 240 20.9 0.0 0.00 0.00 0.00 26 1015.0
20260905104805 32 240 22.5 0.0 0.00 0.00 0.00 26 1015.0
20260905103305 32 240 22.5 0.0 0.00 0.00 0.00 26 1015.0
20260905101805 32 240 17.7 0.0 0.00 0.00 0.00 26 1016.0
20260905100306 32 240 17.7 0.0 0.00 0.00 0.00 26 1016.0
20260905094919 32 210 16.1 0.0 0.00 0.00 0.00 27 1016.0
20260905093305 32 210 16.1 0.0 0.00 0.00 0.00 27 1016.0
20260905091805 30 210 16.1 0.0 0.00 0.00 0.00 31 1016.0
20260905090305 30 210 16.1 0.0 0.00 0.00 0.00 31 1016.0
20260905084805 28 200 16.1 0.0 0.00 0.00 0.00 33 1016.0
20260905083305 28 200 16.1 0.0 0.00 0.00 0.00 33 1016.0
20260905081805 27 200 12.9 0.0 0.00 0.00 0.00 35 1016.0
20260905080306 27 200 12.9 0.0 0.00 0.00 0.00 35 1016.0
20260905074805 27 180 11.3 0.0 0.00 0.00 0.00 39 1016.0
20260905073314 27 180 11.3 0.0 0.00 0.00 0.00 39 1016.0
20260905071805 23 160 14.5 0.0 0.00 0.00 0.00 47 1016.0
20260905070305 23 160 14.5 0.0 0.00 0.00 0.00 47 1016.0
20260905064805 22 130 12.9 0.0 0.00 0.00 0.00 50 1016.0
20260905063305 22 130 12.9 0.0 0.00 0.00 0.00 50 1016.0
20260905061806 21 110 14.5 0.0 0.00 0.00 0.00 57 1016.0
20260905060306 21 110 14.5 0.0 0.00 0.00 0.00 57 1016.0
20260905054805 20 100 12.9 0.0 0.00 0.00 0.00 60 1016.0
20260905053306 20 100 12.9 0.0 0.00 0.00 0.00 60 1016.0
20260905051805 17 100 12.9 0.0 0.00 0.00 0.00 68 1016.0
20260905050305 17 100 12.9 0.0 0.00 0.00 0.00 68 1016.0
20260905044805 16 100 14.5 0.0 0.00 0.00 0.00 77 1016.0
20260905043305 16 100 14.5 0.0 0.00 0.00 0.00 77 1016.0
20260905041805 15 100 12.9 0.0 0.00 0.00 0.00 77 1016.0
20260905040305 15 100 12.9 0.0 0.00 0.00 0.00 77 1016.0
20260905034805 15 100 11.3 0.0 0.00 0.00 0.00 77 1016.0
20260905033305 15 100 11.3 0.0 0.00 0.00 0.00 77 1016.0
20260905031805 16 100 12.9 0.0 0.00 0.00 0.00 77 1016.0
20260905030305 16 100 12.9 0.0 0.00 0.00 0.00 77 1016.0
20260905024818 16 100 12.9 0.0 0.00 0.00 0.00 77 1016.0
20260905023305 16 100 12.9 0.0 0.00 0.00 0.00 77 1016.0